Вернуться в каталог

PEGASUS R/B

АктивенVLEO
NORAD 25561·ROCKET BODY·🇺🇸 United States

Запущен Dec 6, 1998 с Vandenberg Space Force Base

Loading…

Ближайшие Пролёты (ближайшие 24 часа)

TLE

СвежийSource: Space-Track

Эпоха: Sep 14, 2026, 10:48 UTC

1 25561U 98071B   26257.45029903  .00001739  00000-0  13324-3 0  9994
2 25561  69.9091  77.3260 0003418 131.9466 228.1987 15.03846863509270

Отслеживайте PEGASUS R/B в реальном времени с AllMySat

Download on the App Store